Location: Seattle
(47.6064°N, 122.3308°W)
Time: 19:51:05
(UTC-07:00)

S-56A Canister/Altair - Pass Details

Date: 05 August 2021
Orbit: 632 x 2500 km, 38.9° (Epoch: 24 September)

Event Time Altitude Azimuth Distance (km) Brightness Sun altitude
Rises 22:00:33 0° 281° (W) 6,180 13.2 -12.4°
Reaches altitude 10° 22:07:03 10° 263° (W) 5,127 12.3 -13.2°
Maximum altitude 22:14:16 16° 233° (SW) 4,468 11.5 -14.1°
Drops below altitude 10° 22:20:55 10° 202° (SSW) 4,624 11.2 -14.9°
Enters shadow 22:26:06 - 183° (S) 5,252 11.4 -15.5°
